Rechercher aéroport 
image banner adimage banner adimage banner ad
image banner ad

0O4 - Corning Muni

Situé à Corning, United States

ICAO - 0O4, IATA -

Données fournies par Airmate  

Information générale

Coordonnées: N39°56'46" W122°10'16"
Élévation : 296 feet MSL.
Variation magnétique : 17° East
Voir autres Aéroports à California

Données opérationnelles

Special qualification required
Heure actuelle UTC:
Heure actuelle locale:
Météo à : KRBL - Red Bluff Muni ( 24 km )
METAR: KRBL 212354Z AUTO 15009KT 10SM CLR 35/03 A3002 RMK AO2 SLP163 T03500028 10350 20306 56015
TAF: KRBL 212320Z 2200/2224 16008KT P6SM SKC FM220300 VRB04KT P6SM FEW250 FM221700 16012KT P6SM FEW250
Voir NOTAMs / SUP AIP / TFR affectant cet aéroport [VIEW]
Fréquences de communication: [VIEW]

Pistes:

Identifiant RWYQFULongueur (ft)Largeur (ft)SurfaceLDA (ft)
17180°269960ASPH
35360°269960ASPH

Coordonnées de l'aéroport

Adresse: Corning United States

Vue satellite de 0O4